Temperature
9 8 7 7 8 8 7 7 6 8 9 9 8 8 9 10 10 9 10 10 10 10 10 10 10 10 10 10 11 11 11 12 12 12 12 12 12 12 12 13 13 12 12 12
9 8 9 9 9 8 7 6 6 8 9 8 8 8 9 10 10 10 10 10 10 9 9 9 9 10 10 10 10 11 11 11 11 11 12 12 12 12 12 12 12 12 12 12
7 9 9 9 8 7 7 7 7 7 7 8 7 7 9 10 10 10 9 9 9 9 9 9 9 9 9 9 10 10 10 11 11 11 11 11 11 11 11 12 12 12 12 12
8 9 8 8 7 7 6 8 7 7 6 5 7 5 7 8 9 9 8 9 8 8 8 8 8 8 9 9 9 10 10 10 10 11 11 11 11 11 11 11 12 11 11 11
7 8 7 7 7 7 7 8 7 7 6 5 6 5 6 8 8 8 8 8 8 8 8 8 8 8 8 8 9 9 9 10 10 10 10 11 11 11 11 11 11 11 11 11
7 8 8 7 8 8 8 7 6 7 6 5 6 6 6 7 7 8 8 8 7 7 7 7 8 8 8 8 8 9 9 9 10 10 10 10 11 11 11 11 11 11 11 11
7 8 8 8 6 7 6 4 3 4 4 5 8 7 6 8 8 8 8 8 7 7 6 7 7 7 7 7 8 8 8 9 9 9 10 10 10 10 11 11 11 11 11 11
4 5 7 7 6 5 5 5 3 2 3 5 7 6 7 8 9 9 8 8 7 7 6 6 6 7 7 7 7 7 8 8 9 9 9 10 10 10 10 11 11 11 11 11
3 4 7 8 7 6 5 4 5 4 3 4 5 7 7 8 8 8 8 7 7 6 6 6 6 6 6 7 7 7 7 8 8 9 9 9 10 10 10 11 11 11 11 11
4 2 5 7 7 7 6 5 4 3 2 3 5 6 5 6 7 7 7 7 7 6 6 6 6 6 6 7 7 7 7 7 8 8 9 9 9 10 10 10 10 11 11 11
4 2 3 5 5 4 5 4 4 3 3 3 3 4 7 6 6 6 6 7 6 6 6 6 6 6 6 6 7 7 7 7 8 8 8 8 9 10 10 10 11 11 10 10
4 2 2 4 6 6 5 4 3 2 2 3 3 4 7 7 7 7 6 7 6 6 5 5 6 6 6 6 6 6 7 7 8 8 8 8 9 9 9 10 10 10 10 10
3 1 1 3 4 4 4 4 3 2 2 2 2 4 7 6 6 6 6 6 6 6 5 5 5 5 5 5 5 6 6 6 7 8 8 8 8 9 9 10 10 10 10 10
4 1 1 1 2 3 2 3 3 2 1 1 2 4 5 5 5 6 6 6 6 5 5 5 5 5 5 5 5 5 5 6 6 7 7 8 8 9 9 9 10 10 10 10
3 1 1 2 3 3 3 3 3 2 2 2 3 4 4 5 5 5 6 5 5 5 5 5 4 4 4 4 4 5 5 5 6 6 7 7 8 9 9 9 9 9 10 10
2 1 1 1 3 3 3 3 4 3 4 3 3 3 5 5 5 5 5 5 5 5 4 4 4 4 4 4 4 4 5 5 5 6 6 7 7 8 8 9 9 9 9 10
1 -0 0 1 3 3 2 3 4 4 4 4 3 3 5 4 5 4 5 5 4 4 4 4 4 3 3 4 4 4 4 5 5 6 6 6 7 7 8 8 9 9 9 9
0 0 0 0 1 -0 3 5 5 4 4 4 4 4 4 4 5 5 4 4 4 3 3 3 3 3 3 3 4 4 4 4 5 5 6 6 6 7 7 8 8 8 9 9
2 0 -0 -0 0 1 3 5 4 3 2 4 4 4 4 4 4 4 4 4 3 3 3 3 3 3 3 3 3 4 4 4 4 5 5 6 6 6 7 7 8 8 8 9
2 1 -0 -0 -0 1 3 4 4 3 1 3 4 3 3 3 1 2 3 3 3 2 2 2 2 3 3 3 3 3 3 4 4 4 5 6 6 6 6 7 7 8 8 9
-0 -1 -1 -0 -0 1 4 4 3 1 1 4 4 3 3 2 2 2 2 2 2 2 2 2 2 2 2 3 3 3 3 3 4 4 5 5 6 6 6 7 7 7 8 8
-0 -1 -1 -1 -0 1 4 3 2 1 3 4 3 3 3 3 2 2 2 2 2 2 2 2 2 2 2 2 2 3 3 3 3 4 5 5 5 6 6 6 7 7 8 8
1 1 1 0 1 3 4 4 3 4 3 3 3 2 2 2 2 2 1 1 1 1 1 1 1 2 2 2 2 2 2 3 3 4 4 5 5 5 6 6 6 7 7 8
2 3 1 1 2 3 4 4 4 3 3 3 2 2 1 1 1 1 1 1 1 1 1 1 1 1 2 2 2 2 2 2 3 3 4 4 4 5 5 6 6 6 7 7
2 2 1 1 2 3 3 4 3 3 2 2 1 1 1 0 0 0 0 0 0 0 0 0 1 1 1 1 1 2 2 2 2 3 3 4 4 4 5 5 6 6 7 7
2 2 1 1 2 2 2 3 3 2 2 1 1 0 0 -0 -0 -0 -0 -0 -0 -0 0 -0 0 0 1 1 1 1 1 2 2 2 3 3 4 4 4 5 5 6 6 7
Wind_Speed
2 3 5 7 8 12 14 15 19 20 16 15 18 19 17 13 11 10 9 8 9 10 11 9 8 9 8 8 9 9 10 10 9 8 8 8 9 9 8 9 13 14 15 16
4 4 6 8 10 13 13 15 17 16 15 16 17 17 14 11 9 7 7 7 7 8 9 10 9 8 8 8 9 9 9 9 10 8 8 7 8 8 8 9 12 14 15 15
7 7 9 10 11 13 14 12 14 19 20 10 12 11 8 7 7 7 6 7 6 6 8 10 8 7 6 7 7 7 8 8 9 9 7 7 6 7 7 9 11 12 14 16
7 6 9 10 11 12 12 11 16 19 14 7 6 7 7 7 7 8 8 7 7 7 8 9 8 6 7 6 6 6 6 8 8 8 8 11 9 9 9 9 9 11 13 15
7 8 9 9 10 12 9 15 18 18 13 10 7 5 5 5 6 8 8 8 8 8 8 8 8 6 7 6 5 5 6 6 8 9 9 10 10 9 8 10 11 11 12 13
11 8 5 6 10 10 12 13 15 11 5 5 5 4 4 3 6 8 8 8 8 8 9 9 8 7 6 6 3 4 5 6 7 9 10 11 12 11 12 13 13 12 11 11
8 6 2 2 7 7 8 8 6 5 2 4 6 4 2 3 4 5 6 7 8 8 9 10 10 8 7 6 4 3 4 5 6 9 9 11 12 13 14 15 14 13 12 11
7 7 3 2 3 6 7 4 3 4 5 8 8 4 1 4 6 6 6 6 8 9 9 10 10 8 7 7 5 4 4 5 5 8 9 10 11 10 10 13 13 14 12 12
5 7 6 8 6 4 5 3 4 5 8 8 5 3 2 5 7 9 9 9 8 9 10 10 11 9 8 7 6 5 5 5 5 7 8 9 11 11 11 12 13 12 12 13
4 8 10 9 6 4 4 5 4 3 5 6 7 5 3 7 9 10 11 10 11 10 10 10 9 9 9 7 6 5 5 5 5 6 7 8 10 10 11 12 14 13 14 15
4 6 8 7 4 4 3 3 3 4 5 5 7 5 3 7 9 10 10 10 11 11 11 10 9 9 9 8 7 6 4 5 4 4 6 7 8 9 10 12 13 14 14 16
3 4 7 9 8 4 4 4 3 4 6 5 8 9 4 5 7 9 10 10 10 10 10 10 9 9 9 8 8 8 6 5 4 5 6 6 6 8 9 11 12 13 14 16
2 3 6 6 2 0 2 3 4 5 6 8 9 9 5 8 10 11 11 11 11 10 10 9 8 9 9 9 8 9 8 7 5 5 5 5 6 7 8 9 11 12 14 14
4 5 8 10 9 8 10 10 8 8 8 10 14 18 17 13 13 12 11 10 9 10 10 9 8 8 9 9 8 8 9 8 6 4 4 4 5 7 8 8 9 12 13 14
3 7 11 17 18 18 19 18 14 14 14 15 17 19 18 14 12 11 11 11 11 11 10 9 8 8 9 9 9 8 9 9 7 5 4 4 5 5 6 7 8 9 11 13
5 7 9 15 16 16 20 19 17 17 16 16 18 19 14 12 10 10 10 10 11 11 10 10 9 9 9 10 9 9 9 9 8 6 4 4 4 4 5 6 8 9 10 11
5 5 6 9 10 13 13 12 13 11 11 11 14 13 10 10 10 10 9 9 10 10 10 11 9 9 9 9 9 8 9 9 7 6 4 4 3 4 5 6 7 8 9 10
7 6 5 7 8 10 9 5 6 8 9 8 10 9 9 9 10 9 8 8 9 10 10 10 9 9 9 8 8 8 8 8 7 6 4 3 3 4 4 5 7 8 8 10
12 8 5 5 7 12 10 6 4 5 9 7 8 9 9 9 9 8 6 7 8 10 9 9 8 9 9 9 8 8 8 7 7 6 4 3 3 4 4 5 6 7 7 8
8 9 7 7 7 8 6 1 2 2 7 4 4 7 8 8 8 8 9 10 10 10 9 9 9 9 9 9 8 7 7 7 7 7 5 4 3 4 4 5 5 5 7 8
5 7 11 13 10 9 6 1 3 2 7 3 4 6 7 7 8 9 11 11 10 10 10 9 9 9 9 9 8 8 7 7 7 7 6 4 4 4 4 4 4 5 6 7
9 7 8 7 9 10 3 2 4 7 5 6 7 7 8 9 11 11 11 11 11 10 10 9 8 9 8 8 7 8 8 7 7 6 5 4 4 5 4 3 3 5 7 8
10 10 6 9 10 7 3 5 7 6 7 7 7 8 9 10 11 11 11 11 10 10 10 8 8 9 9 8 6 7 8 7 7 6 5 4 4 5 4 4 4 4 6 7
7 8 8 8 10 10 10 8 7 6 7 7 7 8 8 10 12 11 11 10 10 10 10 9 9 9 9 8 7 7 7 6 6 6 5 4 4 4 3 3 4 5 6 7
7 5 9 13 12 11 10 9 7 7 7 7 8 8 8 10 11 11 10 10 10 9 9 8 8 9 9 8 8 7 6 6 6 6 5 4 4 3 2 2 3 4 5 7
9 11 11 12 8 7 8 6 6 7 7 7 7 8 9 9 10 10 10 9 9 9 8 8 9 9 9 8 8 7 6 6 6 6 5 4 3 2 2 1 1 0 4 6
Wind_Direction
252 272 294 309 305 296 296 297 297 298 301 307 298 293 291 293 288 279 276 279 281 280 289 295 286 272 257 247 241 225 222 213 197 189 187 190 188 182 183 179 170 169 170 168
299 278 310 314 308 305 299 298 298 302 311 310 294 289 288 285 283 286 288 296 293 299 306 304 296 277 260 250 243 222 223 218 201 189 187 187 185 182 184 179 172 170 171 168
300 301 324 317 312 310 303 294 304 308 312 297 289 290 293 312 317 332 318 309 313 304 303 304 298 284 270 255 241 234 226 221 207 191 185 184 182 177 184 180 174 175 175 171
297 313 321 314 309 315 303 303 305 304 308 297 301 300 306 318 336 344 347 348 342 322 312 315 315 297 282 271 244 230 228 221 206 192 191 190 193 192 187 179 174 175 176 172
291 311 318 312 313 316 298 307 300 292 285 285 273 261 291 317 331 350 354 353 342 327 321 323 317 311 298 291 253 232 225 228 209 196 197 195 196 196 182 173 173 178 175 173
271 277 288 300 311 309 311 314 301 280 261 271 272 258 294 324 341 355 356 352 347 337 333 330 327 328 320 309 280 242 232 233 221 203 203 200 194 192 184 176 177 178 175 175
308 279 235 312 323 317 332 339 336 339 305 265 318 294 276 336 5 360 353 348 347 347 342 338 337 331 325 316 302 276 251 240 232 212 210 204 196 193 190 181 181 179 176 176
318 308 333 345 315 309 316 329 323 311 301 305 312 278 250 348 3 1 0 356 353 352 345 339 334 328 322 317 301 290 262 252 245 231 220 211 199 196 195 188 186 184 179 176
310 291 316 315 299 291 309 297 276 272 278 278 268 261 261 339 354 356 5 1 353 348 341 336 335 337 332 317 301 287 276 262 251 246 234 221 205 199 196 192 188 183 178 175
286 287 293 296 284 238 255 295 323 310 302 292 292 294 306 346 349 351 355 352 347 344 340 333 334 337 333 322 303 286 280 270 261 253 241 236 211 199 198 195 187 184 179 175
272 274 293 295 262 269 276 281 279 271 266 285 295 293 329 344 340 340 343 345 346 345 339 333 335 336 334 334 336 318 294 287 281 270 252 248 218 202 200 194 187 186 181 178
262 279 280 272 263 242 242 254 259 272 284 275 281 280 295 324 335 339 338 337 337 338 337 332 335 339 339 338 338 333 320 300 283 272 260 252 228 206 201 193 188 187 184 182
269 263 295 299 245 321 282 273 271 267 272 266 269 276 303 329 326 327 326 326 327 331 332 332 338 340 341 341 338 333 326 314 297 284 267 256 234 214 204 193 192 191 186 183
266 237 229 256 276 298 287 275 264 254 259 267 263 279 295 306 313 318 318 319 323 324 327 331 336 338 337 336 334 331 326 321 308 292 269 256 242 222 210 197 194 195 187 184
243 258 255 264 274 278 275 275 268 255 253 261 274 281 288 300 309 312 315 320 327 325 328 332 332 333 332 332 331 330 325 323 319 296 275 266 251 231 211 200 193 192 189 183
225 262 279 275 273 275 274 270 267 264 262 263 273 277 285 296 304 307 312 318 320 321 326 328 327 329 328 326 326 328 323 322 318 303 286 286 265 233 210 202 192 188 187 182
214 237 271 275 287 294 272 259 252 252 252 259 268 278 299 307 308 309 313 314 314 321 325 324 323 322 320 319 321 321 318 316 313 305 302 290 287 246 214 202 190 189 185 181
218 231 255 279 294 259 252 244 255 266 267 267 277 292 303 305 309 308 307 310 318 323 320 318 318 317 312 311 316 315 314 314 310 300 298 297 294 269 226 203 193 192 185 182
213 216 243 259 265 272 273 265 252 266 280 276 284 302 312 316 314 305 321 332 325 316 312 313 312 311 312 311 312 316 316 314 310 300 296 296 294 276 239 212 201 191 184 183
206 204 222 245 258 263 271 324 45 344 281 276 299 307 315 324 312 303 321 322 317 314 311 312 311 311 311 310 312 313 312 313 311 306 298 296 292 278 253 219 207 196 184 184
196 217 226 240 252 264 272 112 76 240 261 309 313 304 305 298 284 297 312 310 307 306 305 307 306 303 302 306 309 308 306 306 304 300 296 292 291 285 261 229 207 194 184 180
195 206 215 222 236 252 221 143 214 243 291 307 302 299 297 295 299 303 305 306 307 307 304 305 302 298 298 300 301 301 299 300 302 297 295 289 287 287 267 221 204 194 183 177
206 207 211 214 232 262 259 253 256 276 288 291 295 299 300 301 301 303 304 305 304 304 303 300 297 296 296 297 294 293 294 299 300 299 298 288 283 278 258 224 202 193 185 177
235 219 237 256 256 263 272 276 277 280 286 295 298 301 302 299 301 302 303 302 302 301 301 301 300 298 295 296 290 287 292 296 295 292 293 288 281 280 264 240 210 197 189 182
240 240 248 256 266 277 269 270 280 284 287 293 296 296 297 297 298 299 300 300 300 300 299 299 298 295 293 294 292 293 296 298 295 289 285 284 277 275 282 273 230 211 208 194
231 237 244 256 258 262 279 292 296 291 284 284 291 298 297 295 297 298 299 300 301 302 301 301 298 297 296 295 292 292 293 291 286 284 281 272 261 264 253 250 279 198 196 186
Height
1472 1473 1472 1469 1467 1465 1461 1459 1453 1444 1438 1435 1430 1423 1417 1413 1411 1408 1406 1405 1404 1403 1402 1401 1400 1399 1399 1399 1400 1402 1404 1405 1407 1410 1413 1416 1419 1423 1428 1432 1436 1442 1447 1452
1470 1469 1467 1465 1464 1462 1459 1456 1450 1439 1434 1434 1426 1418 1412 1409 1407 1405 1403 1401 1400 1399 1397 1396 1395 1394 1394 1394 1395 1396 1398 1400 1401 1404 1408 1412 1415 1418 1423 1427 1431 1437 1442 1447
1472 1467 1464 1463 1462 1460 1457 1454 1447 1443 1434 1429 1425 1416 1408 1404 1403 1402 1400 1399 1398 1398 1396 1394 1391 1389 1389 1389 1389 1390 1392 1394 1397 1400 1403 1407 1411 1414 1418 1421 1426 1432 1438 1443
1469 1464 1464 1463 1461 1459 1456 1448 1444 1439 1440 1435 1429 1428 1411 1406 1403 1401 1399 1398 1397 1396 1394 1391 1389 1386 1385 1384 1385 1386 1387 1389 1392 1395 1398 1401 1404 1407 1411 1416 1421 1427 1433 1438
1470 1465 1464 1463 1460 1458 1453 1446 1442 1436 1435 1434 1426 1429 1415 1406 1403 1401 1400 1398 1397 1395 1392 1390 1387 1385 1383 1382 1381 1382 1383 1385 1387 1390 1393 1396 1400 1404 1408 1413 1417 1423 1429 1435
1467 1463 1463 1462 1458 1456 1451 1446 1437 1429 1430 1437 1422 1423 1416 1410 1405 1403 1400 1399 1397 1395 1392 1389 1386 1383 1381 1379 1379 1379 1380 1381 1383 1386 1388 1391 1394 1399 1402 1407 1413 1418 1424 1431
1466 1460 1459 1460 1459 1455 1454 1457 1455 1449 1441 1432 1414 1415 1415 1407 1404 1403 1401 1400 1397 1394 1391 1388 1384 1381 1379 1377 1376 1376 1377 1378 1380 1382 1384 1387 1390 1394 1397 1401 1407 1413 1419 1425
1477 1469 1459 1459 1461 1461 1458 1459 1468 1468 1453 1433 1420 1416 1413 1406 1403 1402 1401 1399 1397 1394 1391 1387 1384 1381 1378 1376 1375 1374 1375 1375 1377 1378 1380 1383 1385 1389 1393 1397 1402 1408 1413 1420
1482 1473 1460 1458 1457 1459 1459 1459 1456 1459 1452 1445 1425 1412 1409 1405 1403 1401 1399 1398 1396 1394 1391 1387 1383 1380 1377 1374 1373 1373 1372 1372 1374 1376 1377 1379 1381 1385 1388 1393 1398 1403 1409 1415
1482 1481 1465 1458 1455 1454 1456 1456 1459 1462 1461 1448 1427 1416 1417 1409 1405 1403 1401 1399 1396 1394 1390 1386 1382 1378 1375 1373 1371 1371 1370 1370 1371 1372 1374 1376 1378 1380 1384 1388 1392 1398 1403 1410
1480 1483 1470 1460 1456 1457 1457 1458 1458 1459 1454 1453 1442 1426 1409 1410 1407 1405 1403 1400 1398 1394 1391 1387 1382 1378 1375 1371 1369 1368 1367 1367 1367 1368 1370 1371 1373 1376 1380 1383 1388 1393 1398 1404
1479 1481 1475 1461 1451 1450 1452 1455 1458 1465 1459 1450 1444 1428 1409 1408 1406 1404 1402 1400 1397 1394 1390 1387 1382 1378 1374 1371 1368 1367 1365 1365 1364 1365 1366 1367 1369 1372 1375 1379 1383 1389 1394 1399
1479 1482 1480 1461 1456 1454 1454 1453 1454 1457 1456 1450 1445 1426 1407 1407 1406 1404 1402 1399 1395 1392 1389 1385 1381 1377 1374 1371 1368 1365 1364 1362 1361 1361 1362 1363 1364 1368 1371 1374 1379 1384 1389 1394
1476 1478 1479 1472 1459 1457 1456 1453 1451 1454 1454 1445 1434 1421 1411 1408 1405 1402 1400 1396 1393 1390 1387 1383 1380 1376 1373 1371 1368 1365 1362 1360 1359 1358 1358 1359 1360 1363 1366 1370 1374 1380 1384 1390
1474 1474 1468 1460 1454 1451 1447 1443 1442 1443 1440 1438 1425 1418 1410 1407 1404 1401 1397 1394 1391 1388 1385 1382 1379 1375 1372 1369 1366 1363 1360 1358 1356 1356 1356 1356 1357 1360 1363 1367 1371 1375 1380 1385
1471 1470 1465 1457 1449 1444 1438 1432 1430 1428 1425 1422 1418 1412 1406 1403 1401 1398 1395 1392 1389 1386 1383 1380 1377 1374 1371 1368 1365 1362 1359 1357 1355 1354 1353 1354 1355 1356 1359 1363 1368 1372 1376 1380
1468 1469 1465 1454 1444 1441 1434 1421 1419 1418 1414 1415 1413 1408 1402 1400 1398 1395 1392 1390 1387 1384 1381 1378 1375 1372 1369 1366 1363 1360 1358 1355 1353 1351 1351 1351 1352 1354 1356 1360 1363 1367 1371 1377
1462 1463 1462 1455 1450 1448 1424 1411 1410 1409 1407 1407 1404 1402 1400 1398 1395 1392 1390 1388 1384 1382 1379 1376 1373 1369 1366 1364 1361 1358 1355 1353 1351 1350 1349 1349 1350 1351 1353 1355 1359 1363 1367 1372
1451 1457 1459 1455 1448 1432 1416 1409 1408 1409 1407 1402 1401 1399 1397 1395 1392 1389 1387 1385 1382 1380 1377 1373 1370 1367 1364 1361 1358 1355 1353 1351 1349 1348 1347 1348 1348 1349 1350 1352 1355 1359 1364 1368
1445 1449 1456 1450 1446 1432 1413 1406 1404 1407 1409 1399 1398 1397 1395 1393 1394 1388 1385 1382 1379 1376 1373 1370 1367 1364 1361 1358 1355 1353 1351 1349 1347 1345 1345 1345 1346 1346 1347 1349 1352 1356 1360 1364
1446 1448 1447 1444 1439 1422 1408 1405 1406 1415 1409 1397 1395 1394 1393 1392 1391 1386 1382 1378 1375 1372 1369 1366 1363 1360 1358 1355 1353 1350 1348 1346 1344 1343 1342 1342 1343 1343 1344 1346 1349 1352 1356 1360
1437 1440 1439 1436 1434 1420 1403 1404 1406 1403 1397 1395 1393 1392 1390 1387 1384 1381 1378 1375 1371 1367 1364 1362 1359 1356 1354 1352 1350 1347 1345 1343 1342 1340 1340 1340 1340 1340 1341 1344 1346 1349 1353 1357
1422 1422 1421 1420 1412 1400 1398 1398 1397 1396 1394 1392 1390 1388 1387 1383 1380 1377 1373 1370 1367 1364 1360 1357 1354 1351 1349 1347 1346 1344 1342 1340 1339 1337 1337 1337 1337 1338 1339 1340 1343 1346 1350 1353
1411 1409 1410 1407 1399 1396 1395 1394 1393 1392 1390 1388 1387 1385 1383 1379 1376 1373 1369 1366 1362 1359 1356 1353 1350 1347 1344 1343 1342 1341 1339 1337 1336 1334 1334 1333 1334 1334 1335 1337 1340 1343 1346 1350
1405 1404 1403 1399 1395 1393 1390 1390 1388 1387 1386 1384 1382 1381 1378 1375 1372 1369 1365 1361 1358 1354 1352 1349 1346 1343 1341 1339 1337 1336 1335 1333 1332 1331 1331 1330 1331 1331 1331 1333 1336 1339 1342 1346
1396 1397 1397 1392 1389 1388 1385 1385 1384 1382 1381 1379 1378 1375 1373 1371 1368 1364 1361 1357 1354 1350 1347 1345 1342 1339 1337 1335 1333 1332 1331 1330 1328 1327 1327 1327 1327 1328 1329 1330 1333 1335 1339 1343